Location: Jackson Park
(37.2862°N, 79.9123°W)
Time: 12:07:26
(UTC+00:00)

S-56A Canister/Altair - Pass Details

Date: 18 May 2026
Orbit: 632 x 2484 km, 38.9° (Epoch: 9 June)

Event Time Altitude Azimuth Distance (km) Brightness Sun altitude
Rises 00:36:57 0° 240° (WSW) 3,440 11.4 -3.3°
Reaches altitude 10° 00:39:45 10° 237° (WSW) 2,314 10.4 -3.7°
Maximum altitude 00:44:46 57° 159° (SSE) 776 7.3 -4.6°
Drops below altitude 10° 00:49:06 10° 80° (E) 2,007 9.2 -5.4°
Sets 00:51:22 0° 76° (ENE) 2,936 10.1 -5.8°
